This is the latest recevied weather packets stored in our database for station/object K5NWZ. If no packets are shown the sender has not sent any weather packets the latest 10 day(s).
| Time | Temp. | Humidity | Pressure | Rain* | Wind** | Luminosity | Snow |
|---|---|---|---|---|---|---|---|
| 1787680369 | 26.67° C | 43% | 1034.8 hPa | 0 mm | - | 677 W/m² | - |
| 1787680067 | 26.11° C | 44% | 1035.2 hPa | 0 mm | - | 813 W/m² | - |
| 1787679767 | 26.67° C | 42% | 1035.3 hPa | 0 mm | - | 691 W/m² | - |
| 1787679462 | 26.67° C | 41% | 1035.2 hPa | 0 mm | - | 688 W/m² | - |
| 1787679158 | 26.11° C | 42% | 1035.3 hPa | 0 mm | - | 430 W/m² | - |
| 1787678852 | 25.56° C | 42% | 1035.1 hPa | 0 mm | - | 673 W/m² | - |
| 1787678547 | 25.56° C | 44% | 1035.3 hPa | 0 mm | - | 678 W/m² | - |
| 1787678247 | 26.11° C | 42% | 1035.1 hPa | 0 mm | - | 674 W/m² | - |
| 1787677942 | 25.56° C | 45% | 1035.3 hPa | 0 mm | - | 547 W/m² | - |
| 1787677637 | 25° C | 44% | 1035.4 hPa | 0 mm | - | 741 W/m² | - |
| 1787677335 | 26.11° C | 43% | 1035.5 hPa | 0 mm | - | 608 W/m² | - |
| 1787677035 | 26.11° C | 43% | 1035.5 hPa | 0 mm | - | 693 W/m² | - |
| 1787676730 | 25° C | 46% | 1035.7 hPa | 0 mm | - | 545 W/m² | - |
| 1787676426 | 25° C | 45% | 1035.8 hPa | 0 mm | - | 679 W/m² | - |
| 1787676122 | 25° C | 46% | 1035.8 hPa | 0 mm | - | 435 W/m² | - |
| 1787675812 | 25° C | 44% | 1035.8 hPa | 0 mm | - | 393 W/m² | - |
| 1787675508 | 26.11° C | 43% | 1035.5 hPa | 0 mm | - | 354 W/m² | - |
| 1787675205 | 25.56° C | 43% | 1035.8 hPa | 0 mm | - | 357 W/m² | - |
| 1787674895 | 25.56° C | 46% | 1035.9 hPa | 0 mm | - | 686 W/m² | - |
| 1787674590 | 25° C | 44% | 1035.9 hPa | 0 mm | - | 677 W/m² | - |
| 1787674286 | 23.89° C | 45% | 1035.7 hPa | 0 mm | - | 597 W/m² | - |
| 1787673980 | 23.89° C | 47% | 1035.8 hPa | 0 mm | - | 505 W/m² | - |
| 1787673676 | 23.89° C | 48% | 1035.7 hPa | 0 mm | - | 273 W/m² | - |
| 1787673370 | 23.33° C | 49% | 1035.8 hPa | 0 mm | - | 398 W/m² | - |
| 1787673070 | 22.78° C | 49% | 1035.7 hPa | 0 mm | - | 258 W/m² | - |
* Rain latest hour (hover to see other rain measurements)
** Current wind speed in m/s (hover to see current wind gust speed)